When you browse on this site, cookies collect data to enhance your experience and personalize the content and advertising you see.
Visit our Privacy Policy to learn more. By continuing to use the site, you agree to this use of cookies and data.
  • In Austria
  • List of Countries
  • For 7 days
  • Water Temperature
  • Weather Map
  • News
  • Weather Widgets
  • user-avatar
    Login

    Hourly Weather Tulancingo

    Today, 22 January, Wednesday

    Time Temperature Precipitation Wind Pressure Humidity
    00:00 +9°C° 0 mm 1 mps 587 mmHg 88%
    01:00 +8°C° 0 mm 1 mps 586 mmHg 88%
    02:00 +8°C° 0 mm 1 mps 585 mmHg 88%
    03:00 +7°C° 0 mm 2 mps 585 mmHg 86%
    04:00 +7°C° 0 mm 2 mps 585 mmHg 84%
    05:00 +7°C° 0 mm 2 mps 585 mmHg 83%
    06:00 +9°C° 0 mm 2 mps 586 mmHg 75%
    07:00 +12°C° 0 mm 2 mps 587 mmHg 68%
    08:00 +13°C° 0 mm 2 mps 588 mmHg 60%
    09:00 +16°C° 0 mm 2 mps 589 mmHg 53%
    10:00 +18°C° 0 mm 3 mps 589 mmHg 45%
    11:00 +20°C° 0 mm 3 mps 590 mmHg 38%
    12:00 +20°C° 0 mm 3 mps 589 mmHg 37%
    13:00 +21°C° 0 mm 3 mps 589 mmHg 36%
    14:00 +21°C° 0 mm 3 mps 588 mmHg 34%
    15:00 +20°C° 0 mm 2 mps 587 mmHg 43%
    16:00 +18°C° 0 mm 2 mps 586 mmHg 52%
    17:00 +18°C° 0 mm 1 mps 586 mmHg 60%
    18:00 +16°C° 0 mm 1 mps 586 mmHg 62%
    19:00 +15°C° 0 mm 1 mps 586 mmHg 64%
    20:00 +14°C° 0 mm 1 mps 586 mmHg 66%
    21:00 +14°C° 0 mm 1 mps 586 mmHg 67%
    22:00 +14°C° 0 mm 1 mps 586 mmHg 69%
    23:00 +14°C° 0 mm 1 mps 586 mmHg 70%

    Tomorrow, 23 January, Thursday

    Time Temperature Precipitation Wind Pressure Humidity
    00:00 +13°C° 0 mm 1 mps 586 mmHg 76%
    01:00 +11°C° 0 mm 0 mps 585 mmHg 81%
    02:00 +11°C° 0 mm 0 mps 585 mmHg 87%
    03:00 +11°C° 0 mm 0 mps 584 mmHg 87%
    04:00 +12°C° 0 mm 1 mps 584 mmHg 88%
    05:00 +12°C° 0 mm 1 mps 584 mmHg 88%
    06:00 +13°C° 0 mm 1 mps 585 mmHg 82%
    07:00 +14°C° 0 mm 1 mps 586 mmHg 77%
    08:00 +15°C° 0 mm 1 mps 587 mmHg 71%
    09:00 +16°C° 0.2 mm 1 mps 587 mmHg 67%
    10:00 +17°C° 0.2 mm 2 mps 587 mmHg 63%
    11:00 +18°C° 0.2 mm 2 mps 587 mmHg 59%
    12:00 +17°C° 0.6 mm 2 mps 587 mmHg 62%
    13:00 +17°C° 0.6 mm 2 mps 586 mmHg 65%
    14:00 +16°C° 0.6 mm 2 mps 585 mmHg 69%
    15:00 +15°C° 1 mm 2 mps 585 mmHg 76%
    16:00 +14°C° 1 mm 2 mps 584 mmHg 83%
    17:00 +12°C° 1 mm 2 mps 584 mmHg 90%
    18:00 +12°C° 1.6 mm 1 mps 584 mmHg 90%
    19:00 +11°C° 1.6 mm 1 mps 585 mmHg 90%
    20:00 +11°C° 1.6 mm 1 mps 585 mmHg 90%
    21:00 +11°C° 0.8 mm 1 mps 585 mmHg 89%
    22:00 +11°C° 0.8 mm 1 mps 585 mmHg 88%
    23:00 +11°C° 0.8 mm 1 mps 585 mmHg 88%

    Day after tomorrow, 24 January, Friday

    Time Temperature Precipitation Wind Pressure Humidity
    00:00 +11°C° 0.2 mm 1 mps 585 mmHg 87%
    01:00 +11°C° 0.2 mm 1 mps 585 mmHg 87%
    02:00 +11°C° 0.2 mm 1 mps 584 mmHg 87%
    03:00 +11°C° 0.1 mm 1 mps 585 mmHg 88%
    04:00 +11°C° 0.1 mm 1 mps 585 mmHg 89%
    05:00 +9°C° 0.1 mm 0 mps 585 mmHg 90%
    06:00 +11°C° 0 mm 1 mps 585 mmHg 87%
    07:00 +12°C° 0 mm 1 mps 586 mmHg 84%
    08:00 +12°C° 0 mm 1 mps 587 mmHg 82%
    09:00 +13°C° 0.1 mm 1 mps 587 mmHg 79%
    10:00 +14°C° 0.1 mm 1 mps 587 mmHg 76%
    11:00 +15°C° 0.1 mm 1 mps 588 mmHg 74%
    12:00 +15°C° 0.2 mm 1 mps 587 mmHg 75%
    13:00 +15°C° 0.2 mm 1 mps 586 mmHg 76%
    14:00 +15°C° 0.2 mm 2 mps 586 mmHg 77%
    15:00 +14°C° 0.1 mm 2 mps 585 mmHg 82%
    16:00 +13°C° 0.1 mm 2 mps 585 mmHg 86%
    17:00 +13°C° 0.1 mm 2 mps 585 mmHg 91%
    18:00 +12°C° 0.1 mm 2 mps 585 mmHg 92%
    19:00 +12°C° 0.1 mm 2 mps 586 mmHg 93%
    20:00 +12°C° 0.1 mm 1 mps 586 mmHg 95%
    21:00 +12°C° 0 mm 1 mps 586 mmHg 95%
    22:00 +12°C° 0 mm 1 mps 586 mmHg 95%
    23:00 +11°C° 0 mm 1 mps 586 mmHg 95%

    25 January, Saturday

    Time Temperature Precipitation Wind Pressure Humidity
    00:00 +11°C° 0 mm 1 mps 585 mmHg 94%
    01:00 +11°C° 0 mm 1 mps 585 mmHg 93%
    02:00 +10°C° 0 mm 1 mps 585 mmHg 93%
    03:00 +10°C° 0 mm 1 mps 585 mmHg 93%
    04:00 +10°C° 0 mm 1 mps 585 mmHg 93%
    05:00 +10°C° 0 mm 1 mps 585 mmHg 93%
    06:00 +11°C° 0 mm 1 mps 586 mmHg 87%
    07:00 +13°C° 0 mm 1 mps 587 mmHg 82%
    08:00 +14°C° 0 mm 1 mps 588 mmHg 76%
    09:00 +16°C° 0 mm 2 mps 588 mmHg 67%
    10:00 +18°C° 0 mm 2 mps 589 mmHg 57%
    11:00 +20°C° 0 mm 2 mps 590 mmHg 48%
    12:00 +20°C° 0.1 mm 2 mps 589 mmHg 48%
    13:00 +20°C° 0.1 mm 2 mps 589 mmHg 48%
    14:00 +20°C° 0.1 mm 3 mps 588 mmHg 48%
    15:00 +19°C° 0.2 mm 2 mps 587 mmHg 56%
    16:00 +18°C° 0.2 mm 2 mps 587 mmHg 64%
    17:00 +16°C° 0.2 mm 2 mps 586 mmHg 72%
    18:00 +15°C° 0.1 mm 1 mps 586 mmHg 75%
    19:00 +14°C° 0.1 mm 1 mps 586 mmHg 78%
    20:00 +13°C° 0.1 mm 1 mps 586 mmHg 81%
    21:00 +13°C° 0 mm 1 mps 586 mmHg 81%
    22:00 +13°C° 0 mm 1 mps 586 mmHg 80%
    23:00 +12°C° 0 mm 1 mps 586 mmHg 80%

    26 January, Sunday

    Time Temperature Precipitation Wind Pressure Humidity
    00:00 +12°C° 0 mm 1 mps 585 mmHg 81%
    01:00 +12°C° 0 mm 1 mps 585 mmHg 82%
    02:00 +11°C° 0 mm 1 mps 585 mmHg 83%
    03:00 +11°C° 0 mm 1 mps 585 mmHg 84%
    04:00 +11°C° 0 mm 1 mps 585 mmHg 85%
    05:00 +11°C° 0 mm 1 mps 585 mmHg 85%
    06:00 +12°C° 0 mm 1 mps 586 mmHg 81%
    07:00 +13°C° 0 mm 1 mps 587 mmHg 76%
    08:00 +15°C° 0 mm 1 mps 588 mmHg 71%
    09:00 +16°C° 0 mm 2 mps 588 mmHg 61%
    10:00 +18°C° 0 mm 2 mps 589 mmHg 51%
    11:00 +20°C° 0 mm 3 mps 589 mmHg 42%
    12:00 +19°C° 0.3 mm 3 mps 588 mmHg 47%
    13:00 +19°C° 0.3 mm 3 mps 588 mmHg 52%
    14:00 +18°C° 0.3 mm 3 mps 587 mmHg 57%
    15:00 +17°C° 0.7 mm 2 mps 586 mmHg 64%
    16:00 +16°C° 0.7 mm 2 mps 586 mmHg 70%
    17:00 +15°C° 0.7 mm 1 mps 586 mmHg 76%
    18:00 +14°C° 0.3 mm 1 mps 586 mmHg 78%
    19:00 +13°C° 0.3 mm 1 mps 586 mmHg 81%
    20:00 +13°C° 0.3 mm 1 mps 587 mmHg 83%
    21:00 +12°C° 0.1 mm 1 mps 587 mmHg 86%
    22:00 +12°C° 0.1 mm 1 mps 587 mmHg 89%
    23:00 +11°C° 0.1 mm 1 mps 586 mmHg 92%

    27 January, Monday

    Time Temperature Precipitation Wind Pressure Humidity
    00:00 +11°C° 0.1 mm 1 mps 586 mmHg 92%
    01:00 +10°C° 0.1 mm 0 mps 586 mmHg 92%
    02:00 +10°C° 0.1 mm 0 mps 585 mmHg 93%
    03:00 +9°C° 0 mm 0 mps 585 mmHg 93%
    04:00 +9°C° 0 mm 0 mps 585 mmHg 93%
    05:00 +9°C° 0 mm 0 mps 585 mmHg 93%
    06:00 +10°C° 0 mm 0 mps 586 mmHg 88%
    07:00 +10°C° 0 mm 0 mps 586 mmHg 84%
    08:00 +12°C° 0 mm 1 mps 587 mmHg 79%
    09:00 +14°C° 0 mm 1 mps 588 mmHg 68%
    10:00 +16°C° 0 mm 1 mps 588 mmHg 57%
    11:00 +18°C° 0 mm 2 mps 589 mmHg 45%
    12:00 +18°C° 0 mm 2 mps 588 mmHg 45%
    13:00 +19°C° 0 mm 2 mps 588 mmHg 45%
    14:00 +19°C° 0 mm 3 mps 587 mmHg 45%
    15:00 +18°C° 0 mm 2 mps 586 mmHg 54%
    16:00 +16°C° 0 mm 2 mps 586 mmHg 63%
    17:00 +15°C° 0 mm 1 mps 585 mmHg 72%
    18:00 +14°C° 0 mm 1 mps 585 mmHg 76%
    19:00 +13°C° 0 mm 1 mps 585 mmHg 80%
    20:00 +11°C° 0 mm 0 mps 585 mmHg 84%
    21:00 +12°C° 0 mm 1 mps 585 mmHg 78%
    22:00 +11°C° 0 mm 1 mps 585 mmHg 72%
    23:00 +10°C° 0 mm 2 mps 585 mmHg 67%
    Show more